EW7356 Weather Reports


Display with metric or nautical units.
time (UTC)temp
F
wind
direction
speed
MPH
gust
MPH
rain 1hr
in
rain 24hr
in
rain mn
in
humidity
%
barometer
mb
20260904095532 59 234 1.0 4.0 0.00 0.01 0.00 97 1010.1
20260904095031 59 241 2.0 6.0 0.00 0.01 0.00 97 1010.2
20260904094556 59 277 2.0 6.0 0.00 0.01 0.00 97 1010.2
20260904094030 59 249 2.0 3.0 0.00 0.01 0.00 97 1010.2
20260904093532 59 247 1.0 6.0 0.00 0.01 0.00 97 1010.2
20260904093052 59 255 2.0 6.0 0.00 0.01 0.00 97 1010.2
20260904092528 60 260 1.0 4.0 0.00 0.01 0.00 97 1010.2
20260904092030 60 258 2.0 4.0 0.00 0.01 0.00 97 1010.1
20260904091547 60 269 1.0 5.0 0.00 0.01 0.00 97 1010.2
20260904091033 60 274 1.0 6.0 0.00 0.01 0.00 97 1010.3
20260904090531 60 252 1.0 6.0 0.00 0.01 0.00 97 1010.2
20260904090042 60 285 1.0 4.0 0.00 0.01 0.00 97 1010.2
20260904085533 60 265 1.0 3.0 0.00 0.01 0.00 97 1010.2
20260904085028 60 0 1.0 3.0 0.00 0.01 0.00 97 1010.2
20260904084558 60 261 1.0 3.0 0.00 0.01 0.00 98 1010.2
20260904084030 60 0 1.0 3.0 0.00 0.01 0.00 98 1010.2
20260904083530 60 340 0.0 3.0 0.00 0.01 0.00 97 1010.2
20260904083051 60 0 0.0 2.0 0.00 0.01 0.00 98 1010.1
20260904082532 60 0 0.0 2.0 0.00 0.01 0.00 98 1010.0
20260904082030 60 0 0.0 2.0 0.00 0.01 0.00 98 1010.1
20260904081544 60 336 0.0 1.0 0.00 0.01 0.00 98 1010.2
20260904081035 60 0 0.0 1.0 0.00 0.01 0.00 98 1010.2
20260904080531 60 0 0.0 1.0 0.00 0.01 0.00 98 1010.0
20260904080114 59 0 0.0 1.0 0.00 0.01 0.00 97 1010.0
20260904075531 59 0 0.0 1.0 0.00 0.01 0.00 97 1010.1
20260904075033 59 0 0.0 1.0 0.00 0.01 0.00 96 1010.2
20260904074550 59 0 0.0 0.0 0.00 0.01 0.00 96 1010.2
20260904074030 60 0 0.0 0.0 0.00 0.01 0.00 97 1010.2
20260904073533 60 0 0.0 1.0 0.00 0.01 0.00 97 1010.2
20260904073048 60 0 0.0 1.0 0.00 0.01 0.00 97 1010.2
20260904072531 60 336 0.0 2.0 0.00 0.01 0.00 98 1010.4
20260904072030 60 0 0.0 2.0 0.00 0.01 0.00 98 1010.5
20260904071547 60 0 0.0 2.0 0.00 0.01 0.00 97 1010.4
20260904071030 60 336 0.0 2.0 0.00 0.01 0.00 97 1010.5
20260904070531 59 0 0.0 2.0 0.00 0.01 0.00 98 1010.6
20260904070050 59 336 0.0 1.0 0.00 0.01 0.00 98 1010.7
20260904065529 58 0 0.0 1.0 0.00 0.06 0.00 97 1010.6
20260904065029 58 0 0.0 1.0 0.00 0.06 0.00 97 1010.7
20260904064543 58 0 0.0 0.0 0.00 0.06 0.00 96 1010.6
20260904064030 58 0 0.0 1.0 0.00 0.06 0.00 97 1010.6
20260904063527 59 0 0.0 1.0 0.00 0.06 0.00 97 1010.7
20260904063109 59 0 0.0 1.0 0.00 0.06 0.00 96 1010.7
20260904062529 59 0 0.0 0.0 0.00 0.06 0.00 96 1010.7
20260904062030 60 0 0.0 1.0 0.00 0.06 0.00 97 1010.7
20260904061543 60 0 0.0 1.0 0.00 0.06 0.00 97 1010.7
20260904061030 60 0 0.0 1.0 0.00 0.06 0.00 97 1010.7
20260904060530 60 258 0.0 1.0 0.00 0.06 0.00 97 1010.8
20260904060055 60 0 0.0 1.0 0.00 0.06 0.00 97 1010.8
20260904055534 60 0 0.0 1.0 0.00 0.06 0.00 97 1010.9
20260904055029 60 0 0.0 1.0 0.00 0.06 0.00 97 1011.0
20260904054554 60 0 0.0 1.0 0.00 0.06 0.00 96 1011.2
20260904054032 60 0 0.0 1.0 0.00 0.06 0.00 97 1011.2
20260904053527 60 0 0.0 1.0 0.00 0.06 0.00 97 1011.3
20260904053059 60 0 0.0 1.0 0.00 0.06 0.00 97 1011.4
20260904052529 60 0 0.0 1.0 0.00 0.06 0.00 96 1011.5
20260904052029 61 0 0.0 1.0 0.00 0.06 0.00 96 1011.5
20260904051545 61 0 0.0 1.0 0.00 0.06 0.00 97 1011.3
20260904051033 61 258 0.0 1.0 0.00 0.06 0.00 97 1011.5
20260904050529 62 0 0.0 1.0 0.00 0.06 0.00 97 1011.5
20260904050045 62 0 0.0 1.0 0.00 0.06 0.00 97 1011.6
20260904045528 62 0 0.0 1.0 0.00 0.06 0.00 97 1011.5
20260904045030 61 0 0.0 1.0 0.00 0.06 0.00 97 1011.5
20260904044559 62 0 0.0 1.0 0.00 0.06 0.00 97 1011.6
20260904044034 62 0 0.0 1.0 0.00 0.06 0.00 97 1011.5
20260904043529 62 0 0.0 1.0 0.00 0.06 0.00 97 1011.4
20260904043058 62 0 0.0 1.0 0.00 0.06 0.00 97 1011.7
20260904042529 62 0 0.0 1.0 0.00 0.06 0.00 97 1011.7
20260904042032 62 0 0.0 1.0 0.00 0.06 0.00 97 1011.7
20260904041548 62 0 0.0 3.0 0.00 0.06 0.00 97 1011.7
20260904041029 62 258 0.0 3.0 0.00 0.06 0.00 97 1011.6
20260904040529 62 0 1.0 3.0 0.00 0.06 0.00 97 1011.6
20260904040046 61 0 0.0 2.0 0.00 0.06 0.00 97 1011.7
20260904035531 61 281 0.0 2.0 0.00 0.06 0.06 97 1011.8
20260904035031 61 0 0.0 2.0 0.00 0.06 0.06 97 1011.8
20260904034604 61 0 0.0 1.0 0.00 0.06 0.06 97 1011.8
20260904034032 61 0 0.0 2.0 0.00 0.06 0.06 97 1011.9
20260904033534 61 0 0.0 2.0 0.00 0.06 0.06 97 1011.9
20260904033048 61 0 0.0 1.0 0.00 0.06 0.06 97 1012.0
20260904032529 61 0 0.0 1.0 0.00 0.06 0.06 97 1011.8
20260904032029 61 0 0.0 1.0 0.00 0.06 0.06 97 1012.0
20260904031548 61 0 0.0 0.0 0.00 0.06 0.06 96 1012.1
20260904031030 61 0 0.0 0.0 0.00 0.06 0.06 96 1012.1
20260904030531 61 0 0.0 0.0 0.00 0.06 0.06 97 1012.0
20260904030056 61 0 0.0 0.0 0.00 0.06 0.06 96 1012.1
20260904025527 61 0 0.0 0.0 0.00 0.06 0.06 96 1012.1
20260904025030 61 0 0.0 0.0 0.00 0.06 0.06 95 1012.2
20260904024544 61 0 0.0 0.0 0.00 0.06 0.06 96 1012.2
20260904024031 61 0 0.0 2.0 0.00 0.06 0.06 96 1012.2
20260904023531 62 0 0.0 2.0 0.00 0.06 0.06 96 1012.2
20260904023043 62 5 0.0 1.0 0.00 0.06 0.06 96 1012.1
20260904022529 62 0 0.0 1.0 0.00 0.06 0.06 96 1012.1
20260904022032 62 0 0.0 1.0 0.00 0.06 0.06 96 1012.0
20260904021556 62 0 0.0 2.0 0.00 0.06 0.06 95 1012.1
20260904021028 62 0 0.0 2.0 0.00 0.06 0.06 95 1012.3
20260904020528 62 5 0.0 2.0 0.00 0.06 0.06 96 1012.2
20260904020045 62 0 0.0 2.0 0.00 0.06 0.06 95 1012.2
20260904015532 63 5 0.0 2.0 0.00 0.06 0.06 96 1012.2
20260904015030 63 5 1.0 2.0 0.00 0.06 0.06 96 1012.3
20260904014546 63 5 0.0 1.0 0.00 0.06 0.06 95 1012.4
20260904014031 63 0 0.0 2.0 0.00 0.06 0.06 95 1012.5
20260904013527 63 0 0.0 2.0 0.00 0.06 0.06 95 1012.5
20260904013045 63 5 1.0 2.0 0.00 0.06 0.06 95 1012.4
20260904012527 63 5 1.0 2.0 0.00 0.06 0.06 95 1012.4
20260904012031 63 5 1.0 2.0 0.00 0.06 0.06 95 1012.3
20260904011631 64 5 1.0 3.0 0.00 0.06 0.06 95 1012.3
20260904011028 64 5 1.0 3.0 0.00 0.06 0.06 95 1012.4
20260904010527 64 5 1.0 3.0 0.00 0.06 0.06 95 1012.4
20260904010049 64 5 0.0 2.0 0.00 0.06 0.06 95 1012.4
20260904005528 64 0 0.0 2.0 0.00 0.06 0.06 95 1012.2
20260904005028 64 0 0.0 1.0 0.00 0.06 0.06 95 1012.6
20260904004554 64 0 0.0 1.0 0.00 0.06 0.06 95 1012.3
20260904004033 65 0 0.0 1.0 0.00 0.06 0.06 95 1012.1
20260904003534 65 0 0.0 1.0 0.00 0.06 0.06 94 1012.1
20260904003053 65 0 0.0 1.0 0.00 0.06 0.06 94 1012.0
20260904002529 65 0 0.0 1.0 0.00 0.06 0.06 94 1012.0
20260904002031 65 0 0.0 2.0 0.00 0.06 0.06 94 1012.0
20260904001552 65 0 0.0 2.0 0.00 0.06 0.06 94 1012.0
20260904001032 65 0 1.0 2.0 0.00 0.06 0.06 94 1011.9
20260904000529 65 59 0.0 2.0 0.00 0.06 0.06 93 1011.9
20260904000047 66 0 0.0 2.0 0.00 0.06 0.06 93 1011.6
20260903235531 66 57 0.0 2.0 0.00 0.06 0.06 93 1011.6
20260903235031 66 57 1.0 2.0 0.00 0.06 0.06 92 1011.6
20260903234545 66 92 0.0 2.0 0.00 0.06 0.06 93 1011.5
20260903234030 67 0 0.0 2.0 0.00 0.06 0.06 92 1011.4
20260903233532 67 0 0.0 3.0 0.00 0.06 0.06 92 1011.3
20260903233052 67 0 1.0 3.0 0.00 0.06 0.06 91 1011.6
20260903232531 67 13 0.0 3.0 0.00 0.06 0.06 91 1011.4
20260903232031 68 173 1.0 2.0 0.00 0.06 0.06 90 1011.2
20260903231547 68 0 0.0 1.0 0.00 0.06 0.06 89 1011.5
20260903231031 69 0 0.0 1.0 0.00 0.06 0.06 88 1011.5
20260903230530 69 0 0.0 2.0 0.00 0.06 0.06 87 1011.6
20260903230053 70 0 0.0 2.0 0.00 0.06 0.06 87 1011.6
20260903225533 70 0 0.0 2.0 0.00 0.06 0.06 86 1011.4
20260903225031 71 0 0.0 2.0 0.00 0.06 0.06 85 1011.4
20260903224550 71 0 0.0 2.0 0.00 0.06 0.06 85 1011.6
20260903224031 72 0 0.0 2.0 0.00 0.06 0.06 84 1011.7
20260903223531 72 0 0.0 3.0 0.00 0.06 0.06 84 1011.4
20260903223047 72 0 0.0 3.0 0.00 0.06 0.06 84 1011.4
20260903222531 73 0 1.0 3.0 0.00 0.06 0.06 84 1011.5
20260903222030 73 0 0.0 2.0 0.00 0.06 0.06 84 1011.6
20260903221545 73 0 0.0 2.0 0.00 0.06 0.06 83 1011.8
20260903221032 73 0 0.0 2.0 0.00 0.06 0.06 84 1012.0
20260903220530 73 0 0.0 3.0 0.00 0.06 0.06 84 1011.9
20260903220053 73 0 0.0 3.0 0.00 0.06 0.06 84 1011.8
20260903215530 73 0 1.0 3.0 0.00 0.06 0.06 84 1012.0
20260903215029 73 177 0.0 3.0 0.00 0.06 0.06 84 1012.0
20260903214600 73 143 0.0 3.0 0.00 0.06 0.06 84 1011.9
20260903214027 73 61 0.0 4.0 0.00 0.06 0.06 84 1011.8
20260903213529 73 0 0.0 4.0 0.00 0.06 0.06 84 1012.0
20260903213044 72 0 0.0 4.0 0.00 0.06 0.06 85 1011.9
20260903212528 72 147 0.0 2.0 0.00 0.06 0.06 84 1011.9
20260903212028 72 0 1.0 2.0 0.00 0.06 0.06 85 1012.0
20260903211548 72 106 0.0 3.0 0.00 0.06 0.06 85 1011.9
20260903211030 72 159 0.0 3.0 0.00 0.06 0.06 86 1011.9
20260903210530 71 71 0.0 2.0 0.00 0.06 0.06 87 1011.9
20260903210116 71 0 0.0 2.0 0.00 0.06 0.06 87 1011.9
20260903205531 71 0 0.0 3.0 0.00 0.06 0.06 86 1011.8
20260903205028 71 0 0.0 5.0 0.00 0.06 0.06 87 1011.8
20260903204558 71 0 0.0 5.0 0.00 0.06 0.06 87 1012.0
20260903204027 71 181 1.0 4.0 0.00 0.06 0.06 87 1011.9
20260903203532 71 175 1.0 6.0 0.00 0.06 0.06 86 1012.0
20260903203044 71 166 1.0 8.0 0.00 0.06 0.06 86 1012.1
20260903202529 71 188 3.0 8.0 0.00 0.06 0.06 86 1012.0
20260903202030 71 158 0.0 3.0 0.00 0.06 0.06 86 1012.1
20260903201544 71 0 1.0 5.0 0.00 0.06 0.06 86 1012.3
20260903201027 71 0 2.0 6.0 0.00 0.06 0.06 86 1012.3
20260903200527 71 202 1.0 6.0 0.00 0.06 0.06 88 1012.2
20260903200105 70 175 1.0 6.0 0.00 0.06 0.06 87 1012.3
20260903195529 71 167 3.0 6.0 0.00 0.06 0.06 86 1012.5
20260903195029 71 170 1.0 5.0 0.00 0.06 0.06 86 1012.5
20260903194548 70 0 2.0 6.0 0.00 0.06 0.06 86 1012.4
20260903194029 70 173 2.0 6.0 0.00 0.06 0.06 87 1012.5
20260903193529 70 156 2.0 6.0 0.00 0.06 0.06 87 1012.4
20260903193048 70 0 0.0 4.0 0.00 0.06 0.06 88 1012.5
20260903192530 70 176 1.0 4.0 0.00 0.06 0.06 87 1012.7
20260903192030 70 66 0.0 4.0 0.00 0.06 0.06 89 1012.7
20260903191601 69 156 0.0 4.0 0.00 0.06 0.06 90 1012.7
20260903191033 68 0 1.0 4.0 0.00 0.06 0.06 91 1012.7
20260903190531 67 173 0.0 3.0 0.00 0.06 0.06 91 1012.6
20260903190053 67 167 1.0 3.0 0.00 0.06 0.06 92 1012.6
20260903185529 66 15 0.0 4.0 0.00 0.06 0.06 92 1012.6
20260903185029 66 82 0.0 4.0 0.00 0.06 0.06 93 1012.6
20260903184547 65 168 1.0 4.0 0.00 0.06 0.06 92 1012.8
20260903184032 65 30 1.0 5.0 0.00 0.06 0.06 94 1012.9
20260903183529 65 153 1.0 5.0 0.00 0.06 0.06 93 1012.9
20260903183048 65 150 0.0 4.0 0.00 0.06 0.06 95 1013.0
20260903182529 64 171 0.0 4.0 0.00 0.06 0.06 94 1013.1
20260903182030 64 171 0.0 2.0 0.00 0.06 0.06 94 1013.2
20260903181543 64 0 0.0 2.0 0.00 0.06 0.06 95 1013.2
20260903181029 64 0 0.0 2.0 0.00 0.06 0.06 95 1013.2
20260903180530 64 0 0.0 3.0 0.00 0.06 0.06 95 1013.3
20260903180052 64 171 0.0 3.0 0.00 0.06 0.06 94 1013.4
20260903175532 64 165 0.0 2.0 0.00 0.06 0.06 95 1013.4
20260903175027 64 0 0.0 2.0 0.00 0.06 0.06 95 1013.3
20260903174544 63 154 0.0 2.0 0.00 0.06 0.06 95 1013.4
20260903174029 63 0 0.0 3.0 0.00 0.06 0.06 95 1013.5
20260903173533 63 182 0.0 4.0 0.00 0.06 0.06 95 1013.5
20260903173045 63 170 0.0 4.0 0.00 0.06 0.06 96 1013.4
20260903172530 63 170 1.0 4.0 0.00 0.06 0.06 95 1013.5
20260903172030 62 169 0.0 2.0 0.00 0.06 0.06 95 1013.6
20260903171557 62 0 0.0 2.0 0.00 0.06 0.06 95 1013.7
20260903171030 62 169 0.0 2.0 0.00 0.06 0.06 94 1013.7
20260903170529 62 169 0.0 5.0 0.00 0.06 0.06 95 1013.7
20260903170054 62 0 1.0 5.0 0.00 0.06 0.06 94 1013.7
20260903165530 63 162 0.0 4.0 0.00 0.06 0.06 95 1013.6
20260903165029 63 162 0.0 4.0 0.00 0.06 0.06 96 1013.6
20260903164548 62 215 2.0 4.0 0.00 0.06 0.06 95 1013.7
20260903164026 62 199 0.0 2.0 0.00 0.06 0.06 96 1013.8
20260903163526 62 199 0.0 2.0 0.00 0.06 0.06 96 1013.9
20260903163045 62 199 0.0 2.0 0.00 0.06 0.06 96 1013.9
20260903162528 62 311 0.0 3.0 0.00 0.06 0.06 96 1013.8
20260903162028 62 0 0.0 3.0 0.00 0.06 0.06 96 1013.9
20260903161544 61 27 1.0 3.0 0.00 0.06 0.06 97 1013.9
20260903161031 62 234 1.0 3.0 0.00 0.06 0.06 97 1013.8
20260903160530 61 198 0.0 2.0 0.00 0.06 0.06 97 1013.8
20260903160049 61 202 0.0 2.0 0.00 0.06 0.06 97 1013.8
20260903155531 61 0 0.0 4.0 0.00 0.06 0.06 97 1013.9
20260903155037 61 0 0.0 4.0 0.00 0.06 0.06 97 1014.0
20260903154540 60 98 0.0 3.0 0.00 0.06 0.06 97 1013.9
20260903154033 60 231 0.0 3.0 0.00 0.06 0.06 97 1014.3
20260903153529 60 0 0.0 2.0 0.00 0.06 0.06 97 1014.3
20260903153053 60 0 0.0 2.0 0.00 0.06 0.06 97 1014.3
20260903152530 60 209 0.0 2.0 0.00 0.06 0.06 97 1014.3
20260903152030 60 0 0.0 2.0 0.00 0.06 0.06 97 1014.4
20260903151604 60 0 0.0 2.0 0.00 0.06 0.06 97 1014.4
20260903151032 60 0 0.0 2.0 0.00 0.06 0.06 97 1014.4
20260903150530 60 0 0.0 2.0 0.00 0.06 0.06 97 1014.5
20260903150050 60 0 0.0 2.0 0.00 0.06 0.06 97 1014.5
20260903145529 60 109 0.0 2.0 0.00 0.06 0.06 97 1014.5
20260903145031 59 69 0.0 3.0 0.00 0.06 0.06 97 1014.5
20260903144555 59 139 0.0 3.0 0.00 0.06 0.06 97 1014.5
20260903144030 59 51 0.0 3.0 0.00 0.06 0.06 97 1014.7
20260903143530 59 11 0.0 3.0 0.00 0.06 0.06 97 1014.7
20260903143050 59 0 0.0 3.0 0.00 0.06 0.06 97 1014.5
20260903142530 59 0 0.0 1.0 0.00 0.06 0.06 97 1014.6
20260903142030 59 0 0.0 2.0 0.00 0.06 0.06 97 1014.8
20260903141547 59 0 0.0 2.0 0.00 0.06 0.06 97 1014.9
20260903141029 59 169 0.0 2.0 0.00 0.06 0.06 97 1014.8
20260903140533 59 161 0.0 2.0 0.00 0.06 0.06 97 1014.7
20260903140045 59 0 0.0 2.0 0.00 0.06 0.06 97 1014.7
20260903135532 59 153 0.0 2.0 0.00 0.06 0.06 97 1014.7
20260903135033 59 0 0.0 2.0 0.00 0.06 0.06 97 1014.6
20260903134546 59 0 0.0 2.0 0.00 0.06 0.06 97 1014.7
20260903134029 59 153 0.0 1.0 0.00 0.06 0.06 97 1014.6
20260903133534 59 153 0.0 2.0 0.00 0.06 0.06 97 1014.6
20260903133046 59 0 0.0 2.0 0.00 0.06 0.06 97 1014.6
20260903132529 59 0 0.0 2.0 0.00 0.06 0.06 97 1014.5
20260903132030 59 0 0.0 0.0 0.00 0.06 0.06 97 1014.6
20260903131556 59 0 0.0 0.0 0.00 0.06 0.06 97 1014.7
20260903131030 59 0 0.0 0.0 0.00 0.06 0.06 97 1014.6
20260903130532 59 0 0.0 0.0 0.00 0.06 0.06 97 1014.7
20260903130048 58 0 0.0 0.0 0.00 0.06 0.06 97 1014.8
20260903125529 58 0 0.0 0.0 0.00 0.06 0.06 97 1014.7
20260903125030 58 0 0.0 0.0 0.00 0.06 0.06 97 1014.7
20260903124543 58 0 0.0 0.0 0.00 0.06 0.06 97 1014.8
20260903124031 58 0 0.0 0.0 0.00 0.06 0.06 97 1014.7
20260903123527 58 0 0.0 0.0 0.00 0.06 0.06 97 1014.9
20260903123042 58 0 0.0 0.0 0.00 0.06 0.06 97 1014.7
20260903122528 58 0 0.0 0.0 0.00 0.06 0.06 97 1014.9
20260903122033 58 0 0.0 0.0 0.00 0.06 0.06 97 1014.9
20260903121547 58 0 0.0 1.0 0.00 0.06 0.06 97 1015.0
20260903121032 58 0 0.0 1.0 0.00 0.06 0.06 97 1015.1
20260903120529 58 0 0.0 3.0 0.00 0.06 0.06 97 1015.0
20260903120054 58 0 0.0 3.0 0.00 0.06 0.06 97 1015.1
20260903115530 58 166 0.0 3.0 0.00 0.06 0.06 97 1015.1
20260903115030 58 0 0.0 3.0 0.00 0.06 0.06 97 1015.1
20260903114556 58 0 0.0 4.0 0.00 0.06 0.06 97 1015.2
20260903114027 58 0 0.0 4.0 0.00 0.06 0.06 97 1015.2
20260903113528 58 138 0.0 2.0 0.00 0.06 0.06 97 1015.2
20260903113057 58 142 0.0 2.0 0.00 0.06 0.06 97 1015.3
20260903112530 57 0 0.0 2.0 0.00 0.06 0.06 97 1015.1
20260903112032 57 0 0.0 2.0 0.00 0.06 0.06 97 1015.1
20260903111551 57 0 0.0 2.0 0.01 0.06 0.06 97 1015.2
20260903111029 57 0 0.0 4.0 0.01 0.06 0.06 97 1015.3
20260903110530 57 170 0.0 5.0 0.01 0.06 0.06 96 1015.3
20260903110048 57 179 1.0 5.0 0.01 0.06 0.06 97 1015.2
20260903105528 57 0 0.0 3.0 0.01 0.06 0.06 96 1015.1
20260903105034 57 0 0.0 2.0 0.01 0.06 0.06 96 1015.1
20260903104554 57 0 0.0 2.0 0.01 0.06 0.06 96 1015.1
20260903104027 57 0 0.0 4.0 0.01 0.06 0.06 96 1015.0
20260903103530 57 165 0.0 4.0 0.01 0.06 0.06 96 1015.0
20260903103054 57 0 0.0 6.0 0.01 0.06 0.06 96 1015.1
20260903102529 57 0 0.0 6.0 0.01 0.06 0.06 96 1015.2
20260903102033 57 157 0.0 1.0 0.01 0.06 0.06 96 1015.2
20260903101557 57 0 0.0 1.0 0.00 0.05 0.05 96 1015.2
20260903101030 57 111 0.0 1.0 0.00 0.05 0.05 96 1015.2
20260903100530 57 0 0.0 2.0 0.00 0.05 0.05 96 1015.3
20260903100052 57 0 0.0 2.0 0.00 0.05 0.05 96 1015.2